CAPE
870 820 777 776 744 713 696 671 645 572 468 141 2 4 0 0 0 0 40 92 139 86 140 233 244 325 314 237 87 19 32 6 0 0 0 0 0 0 0 16 115 156 160 152 176 616 860 974 1183 1591 1930 2182 2329 2374 2362 2409 2462 2491 2524 2552 2560 2498 2422
895 867 851 804 780 749 735 706 670 659 588 492 0 3 7 0 0 0 13 62 106 89 113 222 303 301 362 310 199 43 18 6 2 43 2 0 0 0 0 0 10 97 158 160 130 112 172 104 597 1174 1732 2030 2211 2280 2323 2370 2404 2424 2418 2395 2380 2283 2248
916 904 904 879 829 801 780 728 699 666 643 618 515 1 379 177 0 0 2 42 84 92 104 212 331 261 336 345 283 147 32 14 0 0 0 0 0 0 0 0 0 14 131 189 154 120 171 74 293 906 1529 1884 2075 2170 2234 2252 2274 2345 2383 2338 2254 2097 2091
921 938 934 908 880 847 807 790 756 710 688 661 602 482 0 288 0 0 0 27 66 108 87 153 304 294 288 335 323 264 122 23 0 0 0 1 1 0 0 0 0 1 64 191 254 223 218 114 195 732 1909 1773 1955 2045 2117 2184 2223 2305 2379 2347 2251 2224 2139
915 926 927 926 895 869 846 830 806 757 726 706 675 586 137 446 439 423 424 420 59 96 78 86 234 333 301 276 320 326 277 107 6 0 0 0 15 1 0 0 5 45 81 175 250 367 265 193 145 541 1204 1721 1869 1980 2051 2158 2225 2270 2346 2360 2306 2332 2407
894 919 900 876 868 844 838 825 822 793 751 732 711 638 557 505 468 445 439 435 420 80 70 75 149 375 363 269 249 267 276 236 117 7 0 0 0 9 0 0 0 34 144 264 392 315 254 251 200 367 917 1517 1814 1964 2033 2129 2232 2261 2308 2380 2384 2252 2377
755 909 918 876 841 815 802 811 824 818 792 768 730 649 573 543 507 474 459 452 430 410 100 131 137 231 355 326 250 225 182 201 174 87 2 0 0 2 28 7 3 0 40 287 444 388 325 344 338 290 582 1238 1705 1894 1999 2071 2208 2276 2316 2363 2384 2238 2304
532 795 908 902 857 817 810 816 833 829 816 785 739 642 605 576 544 514 487 472 459 435 440 398 193 225 292 375 325 235 170 136 129 122 62 2 0 0 1 42 58 4 0 18 322 657 407 396 465 469 426 851 1466 1785 1888 1956 2088 2234 2274 2312 2322 2316 2295
536 664 812 900 908 865 833 843 848 847 832 799 726 636 586 577 579 536 520 500 474 476 481 466 242 290 354 409 408 352 262 192 163 140 93 44 9 0 0 1 51 117 49 0 2 322 701 685 662 691 701 722 1012 1504 1765 1874 1956 2113 2243 2254 2264 2282 2292
591 693 738 822 866 870 871 883 878 845 789 730 640 619 624 666 644 578 566 538 522 521 519 505 472 363 442 425 413 476 414 357 300 258 199 110 51 22 2 0 1 92 137 95 8 4 287 659 682 676 745 866 983 1201 1512 1732 1889 1995 2166 2274 2268 2266 2277
486 709 749 803 811 848 879 908 934 942 911 842 780 730 729 765 724 660 627 606 584 584 568 538 502 488 482 580 676 593 474 478 519 518 495 272 154 80 42 21 6 36 148 202 160 66 61 335 543 632 646 756 988 1223 1379 1554 1737 1904 2044 2203 2296 2317 2330
910 1047 766 685 749 797 825 898 952 974 989 952 894 849 847 861 833 760 700 678 652 650 616 568 535 523 514 529 763 807 681 596 611 679 711 639 527 213 124 79 50 26 112 295 344 283 175 188 438 673 649 354 573 928 1302 1476 1591 1753 1920 2084 2238 2325 2367
804 851 922 1007 1038 967 726 770 893 933 966 984 977 956 933 953 900 847 785 746 718 685 651 614 573 549 548 568 786 863 886 753 761 799 842 870 831 684 505 181 115 72 55 194 408 484 464 363 387 669 775 730 566 420 800 1198 1461 1629 1784 1948 2137 2297 2381
893 848 792 842 953 1066 1175 1142 836 950 937 945 977 1000 1022 994 935 867 837 820 767 718 675 649 617 598 596 611 801 883 959 963 859 898 943 994 1029 958 799 628 417 150 99 106 217 426 550 627 531 606 800 867 820 736 690 905 1223 1485 1669 1820 1998 2205 2354
858 893 882 881 951 995 1059 1146 1208 907 984 1032 979 932 924 908 876 865 846 816 798 770 918 951 894 824 722 668 755 918 987 1043 1018 980 1018 1072 1152 1188 1089 938 779 602 195 195 199 312 441 573 660 667 733 912 983 941 867 872 1086 1334 1555 1733 1873 2035 2215
940 929 910 954 986 1070 1129 1170 1191 1174 1171 1102 1101 1082 1058 992 961 958 942 922 927 1169 1225 1193 1169 1102 1078 1042 1021 1028 1064 1115 1135 1044 1102 1137 1230 1325 1331 1240 1111 961 776 558 248 270 403 513 682 729 738 822 1002 1088 1062 1011 1040 1316 1447 1623 1758 1884 2008
944 993 962 907 977 1118 1225 1243 1241 1261 1234 1207 1207 1144 1228 1121 1094 1071 1006 1068 1224 1382 1539 1534 1463 1400 1364 1336 1309 1284 1286 1275 1281 1174 1198 1245 1318 1408 1453 1439 1394 1289 1134 915 691 377 428 601 685 798 836 827 892 1089 1188 1202 1184 1179 1325 1499 1677 1754 1844
985 993 999 950 974 1109 1280 1362 1315 1289 1255 1280 1262 1245 1302 1237 1284 1194 1207 1271 1261 1472 1716 1832 1775 1704 1625 1607 1586 1574 1552 1525 1506 1461 1334 1372 1438 1515 1560 1605 1598 1544 1434 1261 1060 810 602 697 772 836 902 917 910 964 1130 1258 1296 1315 1308 1352 1507 1668 1741
791 1022 1016 971 984 1050 1208 1367 1386 1305 1302 1292 1322 1360 1338 1363 1398 1421 1521 1354 1414 1369 1852 1987 2029 1968 1910 1860 1845 1825 1786 1769 1732 1691 1633 1521 1579 1635 1681 1754 1784 1762 1691 1609 1442 1203 930 870 915 964 992 1020 1005 987 1012 1169 1299 1368 1390 1394 1374 1484 1625
404 701 833 1018 1025 1030 1163 1294 1327 1390 1379 1374 1339 1351 1396 1428 1472 1555 1512 1543 1481 1467 1764 2164 2204 2215 2184 2160 2112 2077 2044 1991 1951 1908 1864 1804 1762 1787 1840 1900 1938 1960 1935 1862 1731 1587 1332 1088 1059 1088 1094 1094 1094 1076 1052 1070 1192 1322 1390 1425 1439 1438 1483
244 201 286 432 862 974 1012 1207 1352 1329 1341 1384 1451 1406 1440 1455 1560 1595 1599 1586 1626 1518 1547 1850 2329 2462 2460 2374 2324 2248 2222 2191 2145 2108 2083 2057 2027 2018 2023 2025 2130 2205 2194 2127 2028 1905 1660 1447 1108 1226 1223 1191 1170 1144 1133 1116 1126 1238 1342 1412 1463 1483 1501
97 193 292 415 383 765 866 925 1109 1306 1324 1395 1389 1499 1510 1559 1558 1593 1707 1692 1662 1679 1591 1631 1896 2320 2441 2429 2455 2408 2347 2331 2278 2272 2262 2256 2247 2229 2223 2181 2358 2510 2526 2398 2276 2157 1971 1738 1383 1276 1328 1307 1277 1240 1213 1197 1192 1198 1261 1376 1448 1499 1537
2 65 112 0 257 330 565 718 781 683 821 1188 1344 1377 1479 1547 1607 1614 1701 1762 1786 1768 1766 1675 1609 1727 2002 2248 2331 2304 2371 2280 2328 2389 2404 2411 2400 2388 2366 2399 2549 2688 2763 2736 2562 2371 2167 1873 1560 1264 1376 1390 1364 1353 1318 1300 1282 1271 1272 1284 1401 1473 1522
0 30 20 0 0 0 103 307 492 697 702 1050 1218 1330 1401 1449 1627 1687 1680 1774 1902 1966 1858 1878 1867 1812 1718 1675 1918 2150 2231 2352 2272 2396 2606 2551 2537 2522 2531 2602 2721 2831 2902 2912 2861 2649 2340 2053 1733 1418 1397 1410 1400 1386 1380 1364 1338 1321 1311 1295 1293 1380 1453
0 0 0 0 0 0 0 0 98 105 372 242 396 250 185 1069 1502 1620 1713 1752 1815 2104 2523 2542 2404 2179 1886 1658 1659 1816 2051 2233 2379 2410 2636 2734 2686 2720 2792 2858 2914 2984 3011 3006 2968 2930 2781 2420 1923 1539 1381 1446 1439 1413 1405 1390 1370 1347 1322 1314 1305 1297 1323
0 0 0 0 0 0 0 0 0 0 0 0 0 0 221 528 1160 1406 1436 1878 1805 2168 2872 3187 3217 3298 3218 2965 2427 2064 1858 2098 2367 2765 2996 3214 3109 3091 3064 3066 3098 3097 3118 3112 3079 3034 2980 2839 2595 2038 1550 1507 1501 1486 1467 1450 1423 1392 1374 1340 1327 1328 1322
0 0 0 0 0 0 0 0 0 0 0 0 0 57 177 240 448 738 834 902 1414 1733 2144 2534 2814 2822 2949 3204 3260 3066 2796 2517 2864 2893 3239 3407 3385 3351 3302 3247 3226 3224 3214 3181 3146 3098 3051 2978 2886 2668 2197 1659 1580 1567 1544 1521 1525 1506 1490 1442 1381 1352 1364
0 0 0 0 0 0 0 0 0 0 0 0 0 0 87 209 258 382 485 547 886 1101 1402 1832 2100 2225 2377 2613 2912 3229 3177 2933 3038 3347 3414 3404 3399 3426 3450 3392 3349 3329 3292 3251 3191 3135 3085 3054 2947 2827 2643 2306 1652 1642 1631 1631 1634 1627 1618 1608 1537 1413 1424
0 0 0 0 0 0 0 0 0 0 0 0 0 0 0 20 284 366 431 562 611 532 958 1202 1483 1712 1934 2247 2761 3154 3548 3296 2972 3176 3346 3375 3402 3434 3424 3390 3385 3370 3321 3310 3258 3196 3158 3117 3060 2944 2814 2644 2340 1802 1719 1690 1693 1703 1696 1685 1645 1577 1481
0 0 0 0 0 0 0 0 0 0 0 0 0 0 0 0 77 222 312 408 430 387 358 682 1164 1470 1685 2020 2593 3022 3420 3696 3290 3017 3251 3349 3382 3402 3402 3390 3360 3343 3338 3333 3303 3239 3181 3153 3095 3012 2902 2778 2640 2318 1862 1798 1795 1779 1787 1798 1802 1764 1704
0 0 0 0 0 0 0 1 1 0 0 0 0 0 0 0 7 101 215 295 276 384 351 404 500 687 1273 1700 2325 2831 3233 3637 3643 3179 3229 3291 3335 3376 3404 3392 3360 3344 3342 3364 3364 3289 3211 3174 3131 3066 2952 2853 2753 2597 2332 1966 1858 1860 1888 1907 1919 1912 1877
0 0 0 0 0 0 0 0 2 0 0 0 0 0 0 0 0 0 82 169 258 350 344 310 407 452 687 1195 1941 2671 3141 3457 3813 3459 3182 3276 3332 3375 3389 3372 3338 3335 3348 3358 3345 3291 3248 3206 3128 3075 3012 2924 2835 2752 2604 2375 2065 1892 1946 1991 2011 2015 2003
0 0 0 0 0 0 0 0 1 0 0 0 0 0 0 0 0 0 1 83 77 100 73 183 238 351 540 873 1577 2382 2982 3381 3757 3699 3264 3302 3368 3394 3389 3383 3369 3314 3288 3255 3189 3159 3218 3202 3137 3067 3018 2961 2890 2810 2712 2554 2311 2034 1920 1972 2030 2071 2084
0 0 0 0 0 0 0 0 0 1 0 0 0 0 0 0 0 0 0 0 0 0 0 32 226 296 426 645 1162 2117 2842 3301 3700 3746 3411 3292 3390 3406 3394 3384 3382 3341 3277 3208 3126 3088 3137 3174 3108 3030 2962 2904 2869 2843 2780 2667 2470 2250 2002 1946 2006 2059 2081
0 0 0 0 0 0 0 0 0 0 0 0 0 0 0 0 0 0 0 0 0 0 29 238 316 344 370 560 969 1717 2602 3180 3685 3820 3533 3238 3367 3413 3396 3364 3331 3330 3272 3158 3084 3057 3042 3084 3078 2961 2858 2813 2833 2818 2786 2697 2553 2379 2172 1976 2015 2046 2056
0 0 0 1 0 0 0 0 0 0 0 0 0 1 1 0 0 0 0 0 0 0 72 211 260 332 412 439 733 1357 2271 3010 3614 3810 3720 3357 3379 3429 3447 3394 3342 3274 3199 3151 3102 3116 3116 3128 3108 2943 2802 2776 2783 2771 2752 2704 2623 2445 2246 2094 2012 2082 2099
0 0 0 0 0 0 0 0 0 0 0 0 0 4 2 0 0 0 0 0 0 0 0 0 2 261 366 430 530 1011 1820 2641 3308 3741 3734 3553 3291 3446 3462 3457 3419 3367 3313 3150 3158 3154 3148 3184 3195 3092 2989 2936 2909 2838 2796 2756 2702 2597 2446 2295 2109 2127 2164
0 0 0 4 5 0 0 0 0 0 0 0 1 4 5 3 2 2 1 0 0 0 0 1 5 4 305 406 465 817 1292 2188 2930 3554 3789 3644 3458 3524 3541 3524 3495 3448 3404 3377 3373 3317 3277 3300 3274 3182 3092 3051 3006 2955 2954 2925 2879 2812 2678 2522 2333 2190 2148
Wind_Speed
6 5 4 4 3 2 1 3 5 5 7 9 nan nan nan nan nan nan nan nan 6 nan 7 7 6 6 4 3 nan nan nan nan nan nan nan nan nan nan nan nan 5 5 4 3 4 4 5 4 4 4 4 4 4 5 6 6 6 5 5 5 5 6 7
6 5 4 4 3 1 1 3 4 4 5 7 nan nan nan nan nan nan nan nan 6 nan 8 8 8 8 6 5 5 nan nan nan nan nan nan nan nan nan nan nan nan nan 2 3 4 4 3 4 4 5 6 6 6 6 6 7 7 7 7 6 6 8 8
7 7 6 4 3 2 2 3 3 4 5 6 8 nan 7 5 nan nan nan nan nan nan 9 8 7 8 8 7 6 5 nan nan nan nan nan nan nan nan nan nan nan nan 2 2 3 4 4 nan 5 6 7 7 8 8 8 8 9 9 10 9 8 9 9
7 8 7 5 5 5 4 3 3 3 3 6 7 8 nan 6 nan nan nan nan nan 8 nan 8 9 9 9 8 6 5 5 nan nan nan nan nan nan nan nan nan nan nan nan 2 4 4 5 4 5 7 8 9 10 10 10 12 12 12 11 10 10 10 10
9 9 9 9 7 7 6 3 2 3 4 5 6 6 5 5 5 5 6 7 nan nan nan nan 11 12 12 9 10 8 5 4 nan nan nan nan nan nan nan nan nan nan nan 2 3 3 5 4 6 8 10 10 11 11 12 13 13 12 11 10 10 9 10
7 10 10 11 11 9 6 4 3 4 5 6 6 6 6 5 4 4 3 5 6 nan nan nan 9 11 10 10 10 9 8 7 6 nan nan nan nan nan nan nan nan nan 4 1 2 3 4 5 6 8 10 11 12 13 13 13 13 11 11 9 10 9 9
7 8 10 11 14 12 8 5 4 2 5 6 7 9 8 3 4 3 3 3 4 6 nan 7 7 9 10 12 10 10 8 7 7 nan nan nan nan nan nan nan nan nan nan 6 4 3 4 5 6 8 10 11 12 12 12 11 11 10 10 9 9 9 8
13 9 6 10 13 12 9 7 5 3 7 9 10 11 8 4 3 3 2 2 4 6 6 5 5 7 9 12 12 9 9 8 9 7 nan nan nan nan nan nan nan nan nan nan 5 5 4 5 6 8 9 11 12 12 12 11 10 9 8 9 9 9 6
14 12 8 7 9 11 12 7 4 6 11 10 9 10 8 5 4 3 1 3 5 4 4 4 5 7 10 11 12 10 11 11 10 9 nan nan nan nan nan nan nan 9 nan nan nan 7 5 6 7 8 9 11 11 12 11 10 9 8 8 8 9 9 8
18 15 13 12 11 11 14 12 7 8 12 11 11 11 8 6 4 4 4 3 4 3 3 5 7 8 9 11 11 12 12 12 11 9 8 7 nan nan nan nan nan nan 7 nan nan nan 7 7 7 9 10 11 12 12 11 10 9 8 8 8 8 8 8
30 24 18 17 15 14 17 17 10 10 11 10 11 11 9 7 6 6 4 4 3 4 4 5 7 7 7 9 10 11 11 10 11 10 8 7 9 nan nan nan nan nan 7 6 5 nan nan 7 9 9 10 10 11 11 11 9 8 7 7 7 7 7 7
58 54 45 34 26 20 19 18 13 10 9 9 11 11 10 9 8 7 6 4 4 4 4 4 6 6 7 8 9 9 9 10 10 9 9 9 9 9 9 nan nan nan 8 7 5 5 5 6 8 9 9 11 12 12 11 10 8 7 6 6 5 5 5
59 60 58 54 47 40 35 31 21 14 11 10 12 13 12 11 9 9 8 6 4 4 4 3 4 6 7 8 8 9 8 9 9 11 12 12 12 13 12 10 10 nan nan 8 7 5 5 5 7 9 10 11 12 12 12 11 10 8 7 6 5 4 4
67 65 62 59 58 56 52 45 36 30 27 24 21 21 20 17 14 12 10 8 6 5 4 4 3 4 6 8 8 9 9 10 12 13 13 15 16 14 13 12 11 11 nan 11 8 6 5 5 6 8 10 10 11 12 13 13 12 10 9 7 5 4 3
65 63 61 63 59 58 57 55 51 41 32 28 27 28 28 27 23 22 19 15 12 9 5 4 3 3 5 7 8 9 11 13 14 15 15 15 16 15 13 13 13 13 13 12 10 10 8 8 8 8 9 10 11 11 12 13 12 12 10 8 6 5 3
62 61 62 63 61 60 59 56 55 54 51 44 35 31 31 31 28 24 22 19 16 13 10 8 5 4 4 5 6 9 11 12 14 14 14 14 14 14 14 14 14 14 13 12 11 11 11 11 10 9 8 9 10 11 12 12 13 11 6 7 9 7 6
60 60 63 63 62 62 60 59 58 58 57 53 47 42 40 38 35 31 27 24 21 17 15 12 9 7 5 5 6 7 9 10 12 13 13 14 15 16 16 15 17 16 15 14 13 12 12 12 11 10 10 9 10 10 10 11 12 7 8 7 6 9 9
62 63 65 64 63 63 64 62 62 61 60 57 51 47 45 44 42 36 31 31 29 25 23 18 14 10 8 8 8 7 7 8 10 11 13 15 15 16 17 18 18 17 17 16 15 15 15 13 12 12 12 12 11 10 10 11 9 7 8 8 7 9 11
61 63 67 67 65 64 65 64 62 62 61 58 56 51 47 45 46 46 41 33 31 32 28 24 20 17 15 13 11 10 9 9 8 9 11 12 15 17 18 18 18 17 18 17 18 19 17 14 14 14 14 14 13 12 12 12 9 8 8 8 9 8 10
64 63 68 71 67 67 65 64 63 62 59 57 57 54 50 49 49 47 44 43 40 38 37 33 29 25 22 19 15 12 11 10 9 8 9 11 13 15 16 17 16 17 18 20 21 19 17 17 16 16 16 15 15 15 15 14 12 11 10 10 10 9 11
66 67 69 70 72 72 71 68 66 65 62 59 57 54 54 55 55 50 48 46 44 42 40 40 39 36 34 29 23 19 17 14 12 11 11 11 12 13 13 14 16 17 19 20 19 19 19 19 18 18 18 18 18 18 16 16 13 14 13 13 12 11 13
nan 69 70 69 69 72 73 72 69 65 63 57 55 55 55 58 57 55 51 48 45 42 41 39 36 33 33 33 34 33 26 20 17 16 15 14 13 12 11 12 14 15 18 19 20 20 20 20 20 19 20 20 19 19 17 17 15 15 15 15 15 17 18
nan nan 67 nan 70 69 67 68 69 66 63 61 58 56 58 60 61 59 56 51 50 48 45 42 38 35 34 32 30 28 30 30 23 19 18 17 15 13 12 13 13 15 17 17 17 18 18 19 20 21 20 20 20 18 18 19 18 17 16 17 18 23 21
nan nan nan nan nan nan 67 66 66 65 63 62 61 61 60 61 61 61 60 57 53 50 47 44 43 44 40 34 31 32 32 29 30 25 20 19 16 14 14 14 15 15 16 14 14 14 16 18 19 20 20 19 18 18 18 19 20 20 19 19 22 25 22
nan nan nan nan nan nan nan nan nan 64 62 60 61 61 58 57 57 58 61 60 58 53 48 45 43 40 37 37 35 33 32 29 24 22 21 18 17 17 16 15 15 16 16 15 15 14 16 17 18 18 19 19 18 16 15 18 19 21 21 21 24 25 24
nan nan nan nan nan nan nan nan nan nan nan nan nan nan 58 54 52 55 56 57 57 54 51 49 45 42 39 38 35 33 31 29 20 14 15 16 17 19 18 19 19 18 18 17 16 16 16 16 16 15 16 18 17 17 16 16 19 23 21 22 24 25 25
nan nan nan nan nan nan nan nan nan nan nan nan nan nan 59 57 55 55 55 55 54 55 57 54 52 50 49 45 41 36 32 29 23 14 12 14 16 19 20 21 20 20 19 18 18 17 17 15 15 14 14 16 16 16 17 18 18 21 23 21 23 23 24
nan nan nan nan nan nan nan nan nan nan nan nan nan nan nan 58 56 55 54 52 51 51 51 51 51 51 50 49 47 44 40 35 29 21 17 17 18 19 20 21 22 22 20 22 21 18 16 16 16 15 14 15 15 15 16 17 17 19 23 23 22 23 23
nan nan nan nan nan nan nan nan nan nan nan nan nan nan nan nan 56 55 53 52 51 49 48 50 51 52 50 49 50 47 42 39 33 26 23 22 20 19 19 22 24 24 24 24 23 21 18 17 16 15 14 14 14 14 15 17 19 17 22 25 24 23 21
nan nan nan nan nan nan nan nan nan nan nan nan nan nan nan nan nan 52 53 51 49 47 48 49 51 51 49 50 50 46 42 41 37 30 26 24 23 22 22 23 25 26 28 27 26 25 22 20 18 16 15 14 15 15 16 17 18 19 18 24 27 25 23
nan nan nan nan nan nan nan nan nan nan nan nan nan nan nan nan nan 48 47 47 48 50 50 49 50 50 50 52 49 43 41 42 40 33 28 26 26 26 25 25 27 28 29 30 29 27 24 22 21 18 15 15 15 16 18 19 19 20 20 21 26 26 25
nan nan nan nan nan nan nan nan nan nan nan nan nan nan nan nan nan nan nan 42 48 53 54 50 47 46 48 50 48 43 42 44 39 32 29 27 28 26 27 29 30 30 30 30 29 28 26 24 24 21 18 16 15 17 20 23 22 20 22 24 23 25 24
nan nan nan nan nan nan nan nan nan nan nan nan nan nan nan nan nan nan nan nan nan 52 nan 53 47 45 45 46 46 45 46 46 42 35 30 30 31 30 31 32 33 32 32 30 28 28 27 27 26 24 21 18 17 19 22 23 23 23 23 26 27 27 27
nan nan nan nan nan nan nan nan nan nan nan nan nan nan nan nan nan nan nan nan nan nan nan nan 49 47 46 44 42 43 48 52 47 39 35 33 34 33 33 34 34 34 31 29 28 28 27 27 26 24 22 20 21 22 22 21 22 24 23 26 30 30 31
nan nan nan nan nan nan nan nan nan nan nan nan nan nan nan nan nan nan nan nan nan nan nan 52 50 49 48 45 42 42 45 50 53 49 41 38 37 36 34 34 34 32 30 27 28 27 25 24 23 23 23 23 23 24 22 21 19 21 26 29 32 33 32
nan nan nan nan nan nan nan nan nan nan nan nan nan nan nan nan nan nan nan nan nan nan nan 53 51 51 50 48 46 46 47 49 52 50 46 43 41 39 39 36 32 33 30 29 24 21 20 23 23 23 25 24 23 24 22 20 19 26 32 28 32 34 34
nan nan nan nan nan nan nan nan nan nan nan nan nan nan nan nan nan nan nan nan nan nan nan nan nan 53 53 52 50 50 51 51 51 53 50 46 45 44 42 42 42 43 40 37 34 25 20 20 18 20 23 23 23 22 17 16 22 29 31 31 34 34 34
nan nan nan nan nan nan nan nan nan nan nan nan nan nan nan nan nan nan nan nan nan nan nan nan nan nan 54 55 54 53 54 53 54 55 55 51 48 47 46 43 41 39 43 44 40 36 27 22 20 20 21 20 19 22 24 22 22 29 32 33 34 33 33
Wind_Direction
230 228 224 248 284 315 304 316 343 347 338 329 nan nan nan nan nan nan nan nan 205 nan 198 191 179 174 168 179 nan nan nan nan nan nan nan nan nan nan nan nan 158 152 158 134 109 87 93 121 104 107 122 119 119 118 117 127 127 119 121 115 113 107 94
267 248 235 237 262 310 355 313 316 326 325 323 nan nan nan nan nan nan nan nan 221 nan 211 199 188 178 180 185 187 nan nan nan nan nan nan nan nan nan nan nan nan nan 144 107 101 109 118 95 93 96 102 117 117 126 125 124 124 121 117 114 99 96 94
305 285 266 245 247 270 317 282 309 325 322 309 320 nan 347 340 nan nan nan nan nan nan 213 214 200 191 190 192 194 174 nan nan nan nan nan nan nan nan nan nan nan nan 85 89 103 99 102 nan 88 95 102 112 120 125 127 126 124 120 115 108 93 81 82
325 321 312 292 255 244 262 272 309 312 309 320 326 339 nan 345 nan nan nan nan nan 224 nan 211 213 206 202 202 198 192 177 nan nan nan nan nan nan nan nan nan nan nan nan 108 80 92 104 95 90 102 106 115 121 127 130 121 120 118 112 104 91 81 76
341 341 319 303 291 272 272 283 307 325 331 321 314 314 321 324 311 269 245 243 nan nan nan nan 216 210 204 205 203 203 199 189 nan nan nan nan nan nan nan nan nan nan nan 133 133 127 131 125 111 111 113 120 124 129 123 122 117 115 110 102 91 86 76
309 316 325 337 335 319 303 295 309 330 325 316 303 286 289 324 326 331 287 244 230 nan nan nan 225 223 215 208 206 207 210 203 200 nan nan nan nan nan nan nan nan nan 220 178 188 139 127 132 125 119 117 124 126 128 129 123 118 113 109 102 93 86 76
235 299 317 339 342 337 317 272 253 299 304 291 270 259 265 295 350 340 265 235 232 241 nan 228 226 227 221 220 213 215 220 220 216 nan nan nan nan nan nan nan nan nan nan 223 208 180 145 138 128 125 122 127 132 131 131 127 120 119 114 104 97 93 89
220 228 273 322 329 331 311 251 225 297 291 259 249 259 274 287 301 293 268 220 226 224 228 235 220 216 220 222 220 219 220 223 223 218 nan nan nan nan nan nan nan nan nan nan 209 205 162 142 142 142 136 138 137 138 136 134 127 125 120 106 102 99 97
233 224 237 280 306 312 304 260 219 324 309 275 257 257 270 274 288 295 268 223 209 212 205 214 214 211 213 219 219 216 217 223 225 226 nan nan nan nan nan nan nan 217 nan nan nan 206 184 162 157 156 153 148 147 147 145 140 135 134 126 114 105 98 99
224 225 226 223 222 259 275 245 237 298 297 268 244 238 253 260 259 247 228 212 195 170 185 207 208 209 211 215 216 217 217 218 221 229 223 214 nan nan nan nan nan nan 221 nan nan nan 191 181 173 174 168 159 158 159 155 151 146 141 130 116 111 105 99
206 205 216 229 230 251 256 242 258 307 298 269 247 235 235 240 244 248 233 205 180 164 171 195 206 211 212 216 224 222 218 217 221 223 223 216 217 nan nan nan nan nan 232 234 221 nan nan 186 189 186 182 170 167 167 164 157 153 144 132 126 123 109 104
208 207 203 205 207 222 239 240 253 274 271 252 245 239 230 229 236 242 230 210 193 173 169 177 196 203 211 215 222 222 220 218 218 217 219 218 217 217 218 nan nan nan 233 240 237 227 207 188 189 190 186 181 178 177 173 170 167 155 139 127 128 127 123
218 217 212 207 205 205 212 211 211 219 222 218 227 222 215 218 227 235 229 221 203 172 157 170 190 199 206 211 215 217 216 216 212 213 214 216 217 218 219 221 222 nan nan 234 235 238 224 202 189 191 194 189 188 185 185 182 178 173 165 155 151 139 128
217 219 215 213 211 207 205 201 204 208 200 195 198 200 198 199 206 216 219 215 205 189 167 165 178 195 201 208 207 205 209 209 210 212 213 216 220 220 220 222 223 224 nan 229 231 230 231 223 206 197 200 195 194 191 195 194 192 189 184 181 180 176 159
213 215 213 213 210 207 206 204 195 196 204 202 198 196 195 196 198 201 202 201 199 192 168 171 175 178 186 198 200 202 208 212 211 212 216 219 223 225 225 225 225 228 230 231 227 223 223 225 223 215 206 201 201 200 201 200 200 204 205 206 208 210 197
208 210 210 209 206 205 206 204 199 197 196 199 199 199 199 201 202 202 202 199 198 191 188 192 178 181 175 173 188 203 211 216 217 218 220 222 224 226 228 227 228 232 233 232 230 227 227 227 229 228 221 214 210 208 206 202 205 211 233 235 228 230 224
205 205 205 204 202 203 205 205 203 198 198 201 202 200 201 201 199 202 200 200 197 194 195 194 186 183 180 167 188 200 209 215 218 221 220 221 222 223 225 227 227 229 231 231 231 232 232 232 232 233 232 230 224 217 210 207 209 223 240 249 262 242 237
205 203 200 199 199 201 204 206 205 202 200 199 202 206 206 204 202 206 206 203 197 196 197 194 186 181 179 186 194 195 201 208 213 217 219 221 222 225 225 226 227 227 228 229 229 230 232 233 232 232 234 234 233 228 219 213 217 239 243 251 258 253 243
205 204 200 198 198 199 204 206 207 206 202 202 204 205 206 209 208 207 205 205 205 203 201 195 190 185 184 191 193 189 196 204 205 210 215 218 222 224 226 228 228 227 227 227 228 228 230 230 231 231 233 236 237 233 229 222 233 247 255 256 260 264 253
204 204 203 199 197 199 203 206 208 209 207 206 208 208 207 209 210 207 207 206 206 210 206 203 197 193 191 192 191 191 196 202 208 212 215 221 223 225 227 228 227 227 226 225 228 229 228 229 230 231 234 236 236 234 232 232 236 257 263 264 268 269 258
204 204 203 202 197 197 202 205 207 208 207 207 209 210 209 209 209 210 208 209 212 210 215 214 212 205 199 193 190 191 192 194 201 208 219 227 231 230 228 228 226 227 228 229 230 230 229 230 230 230 233 234 236 235 235 233 246 259 268 270 276 276 263
nan 206 203 201 201 200 200 204 205 206 206 208 210 209 209 207 207 209 210 209 211 214 214 214 216 218 220 211 200 188 185 190 194 200 209 218 228 232 231 231 232 231 231 230 230 229 229 229 230 232 233 234 236 237 236 236 253 263 270 275 275 277 254
nan nan 204 nan 200 202 204 204 206 206 206 206 208 208 209 207 205 206 209 210 210 212 214 214 213 214 219 225 228 216 196 183 186 197 203 212 218 221 225 230 232 232 234 234 234 234 235 234 235 234 236 239 239 238 235 236 249 264 270 272 276 266 253
nan nan nan nan nan nan 204 207 208 209 209 204 204 205 205 205 203 204 207 209 208 212 214 215 213 212 212 218 230 233 224 203 183 183 199 207 211 214 217 222 226 232 237 238 239 238 238 238 237 238 240 243 244 243 238 236 247 265 266 271 273 271 261
nan nan nan nan nan nan nan nan nan 208 209 209 205 203 201 200 200 203 207 207 206 207 211 215 218 219 217 216 219 228 233 227 207 184 186 200 206 213 216 220 226 231 236 235 235 237 239 241 240 241 243 246 248 253 252 241 247 265 268 272 274 270 257
nan nan nan nan nan nan nan nan nan nan nan nan nan nan 201 202 204 207 209 209 204 205 209 214 217 219 219 220 217 218 228 237 233 204 191 196 206 214 217 219 222 227 233 234 234 235 240 242 242 245 243 247 250 250 254 250 247 257 273 275 278 281 264
nan nan nan nan nan nan nan nan nan nan nan nan nan nan 205 206 207 211 212 213 212 206 208 210 212 212 213 215 214 214 220 227 235 229 212 211 214 220 223 225 226 229 233 236 235 236 239 244 244 244 242 245 249 252 256 255 255 258 276 277 281 284 277
nan nan nan nan nan nan nan nan nan nan nan nan nan nan nan 209 210 212 213 216 216 210 206 208 211 213 214 215 212 206 208 219 227 226 221 223 226 228 229 229 231 232 236 236 239 240 241 243 245 246 245 246 249 252 255 261 275 262 275 284 283 283 289
nan nan nan nan nan nan nan nan nan nan nan nan nan nan nan nan 210 212 213 215 215 210 208 209 213 215 216 214 209 204 204 212 221 222 220 226 232 236 237 237 238 238 238 241 241 241 241 243 246 247 250 251 252 252 254 256 260 281 273 284 289 289 288
nan nan nan nan nan nan nan nan nan nan nan nan nan nan nan nan nan 209 210 213 213 213 212 213 215 217 217 213 208 205 206 211 215 215 217 225 233 236 240 242 242 242 242 244 244 242 241 240 243 246 251 256 255 255 255 255 255 264 281 278 292 291 296
nan nan nan nan nan nan nan nan nan nan nan nan nan nan nan nan nan 206 208 212 215 214 214 214 215 216 216 212 210 209 209 209 211 212 214 219 229 235 240 246 247 244 243 244 245 245 243 242 244 246 249 252 256 258 259 259 259 256 267 284 285 294 299
nan nan nan nan nan nan nan nan nan nan nan nan nan nan nan nan nan nan nan 212 216 215 213 210 212 213 211 208 209 209 205 202 206 210 213 217 224 231 237 246 250 250 248 247 247 249 248 245 246 246 247 249 253 255 257 260 260 261 262 267 277 282 294
nan nan nan nan nan nan nan nan nan nan nan nan nan nan nan nan nan nan nan nan nan 215 nan 205 206 207 205 206 206 206 206 205 208 212 213 216 222 226 231 239 246 249 250 251 251 250 249 247 248 248 248 248 249 252 254 258 261 262 263 266 269 268 269
nan nan nan nan nan nan nan nan nan nan nan nan nan nan nan nan nan nan nan nan nan nan nan nan 204 205 205 204 206 209 209 210 214 216 217 217 221 226 229 236 244 248 252 256 255 252 250 250 252 253 254 249 249 252 256 258 261 264 269 269 269 268 265
nan nan nan nan nan nan nan nan nan nan nan nan nan nan nan nan nan nan nan nan nan nan nan 206 205 206 206 206 209 212 214 216 217 222 221 218 220 223 229 236 242 246 248 253 254 255 256 256 255 256 256 251 248 253 257 260 264 266 265 265 272 273 270
nan nan nan nan nan nan nan nan nan nan nan nan nan nan nan nan nan nan nan nan nan nan nan 210 210 211 212 212 214 216 218 218 217 216 216 217 219 222 222 225 235 239 244 246 254 260 261 259 254 257 256 252 246 252 259 263 263 266 274 277 278 281 285
nan nan nan nan nan nan nan nan nan nan nan nan nan nan nan nan nan nan nan nan nan nan nan nan nan 216 218 216 217 217 217 218 216 213 212 215 218 220 223 226 225 226 228 229 232 244 252 251 250 253 260 256 245 246 260 260 259 271 276 275 275 281 284
nan nan nan nan nan nan nan nan nan nan nan nan nan nan nan nan nan nan nan nan nan nan nan nan nan nan 220 219 218 217 218 219 218 217 215 214 218 220 223 226 228 226 227 230 228 225 236 247 247 249 256 263 258 250 246 255 264 271 274 276 277 279 282